TimePDT,TemperatureF,Dew PointF,Humidity,Sea Level PressureIn,VisibilityMPH,Wind Direction,Wind SpeedMPH,Gust SpeedMPH,PrecipitationIn,Events,Conditions,WindDirDegrees,DateUTC
12:53 AM,44.1,39.9,85,30.46,10.0,Calm,Calm,-,N/A,,Overcast,0,2013-03-11 07:53:00
1:12 AM,44.6,41.0,87,30.43,10.0,SSE,3.5,-,N/A,,Overcast,160,2013-03-11 08:12:00
1:35 AM,44.6,41.0,87,30.44,10.0,Calm,Calm,-,N/A,,Overcast,0,2013-03-11 08:35:00
1:53 AM,44.1,41.0,89,30.46,9.0,Calm,Calm,-,N/A,,Overcast,0,2013-03-11 08:53:00
2:53 AM,44.1,41.0,89,30.47,9.0,SSE,3.5,-,N/A,,Overcast,150,2013-03-11 09:53:00
3:53 AM,44.1,41.0,89,30.46,9.0,Calm,Calm,-,N/A,,Overcast,0,2013-03-11 10:53:00
4:53 AM,44.1,39.9,85,30.45,6.0,Calm,Calm,-,N/A,,Overcast,0,2013-03-11 11:53:00
5:53 AM,44.1,41.0,89,30.44,5.0,Calm,Calm,-,N/A,,Overcast,0,2013-03-11 12:53:00
6:53 AM,43.0,39.9,89,30.44,10.0,Calm,Calm,-,N/A,,Overcast,0,2013-03-11 13:53:00
7:53 AM,44.1,39.9,85,30.43,7.0,Calm,Calm,-,N/A,,Mostly Cloudy,0,2013-03-11 14:53:00
8:53 AM,45.0,39.9,82,30.43,7.0,Calm,Calm,-,N/A,,Overcast,0,2013-03-11 15:53:00
9:53 AM,46.0,39.9,79,30.44,9.0,Calm,Calm,-,N/A,,Overcast,0,2013-03-11 16:53:00
10:53 AM,46.9,41.0,80,30.42,10.0,Calm,Calm,-,N/A,,Overcast,0,2013-03-11 17:53:00
11:30 AM,48.2,39.2,71,30.39,10.0,Calm,Calm,-,N/A,,Overcast,0,2013-03-11 18:30:00
11:53 AM,48.9,39.9,71,30.41,10.0,Calm,Calm,-,N/A,,Overcast,0,2013-03-11 18:53:00
12:53 PM,50.0,41.0,71,30.40,10.0,WSW,3.5,-,N/A,,Overcast,250,2013-03-11 19:53:00
1:53 PM,51.1,39.9,66,30.38,10.0,WNW,3.5,-,N/A,,Overcast,290,2013-03-11 20:53:00
2:33 PM,51.8,39.2,62,30.34,10.0,West,5.8,-,N/A,,Overcast,280,2013-03-11 21:33:00
2:53 PM,50.0,41.0,71,30.35,10.0,West,5.8,-,N/A,,Overcast,260,2013-03-11 21:53:00
4:53 PM,50.0,41.0,71,30.32,10.0,Calm,Calm,-,N/A,,Overcast,0,2013-03-11 23:53:00
5:23 PM,48.2,42.8,82,30.29,7.0,Calm,Calm,-,0.00,Rain,Light Rain,0,2013-03-12 00:23:00
5:53 PM,48.9,43.0,80,30.30,8.0,Calm,Calm,-,0.01,Rain,Light Rain,0,2013-03-12 00:53:00
6:53 PM,48.0,44.1,86,30.29,8.0,South,3.5,-,0.03,Rain,Light Rain,170,2013-03-12 01:53:00
7:14 PM,48.2,44.6,87,30.26,10.0,South,3.5,-,0.00,Rain,Light Rain,180,2013-03-12 02:14:00
7:53 PM,48.0,44.1,86,30.27,10.0,SSE,4.6,-,0.01,Rain,Light Rain,160,2013-03-12 02:53:00
8:53 PM,46.9,44.1,90,30.24,8.0,South,4.6,-,0.00,,Overcast,190,2013-03-12 03:53:00
9:16 PM,46.4,44.6,93,30.22,8.0,SSE,3.5,-,N/A,,Overcast,160,2013-03-12 04:16:00
9:53 PM,46.9,45.0,93,30.23,8.0,South,3.5,-,N/A,,Overcast,170,2013-03-12 04:53:00
10:53 PM,48.0,45.0,89,30.22,6.0,SSE,6.9,-,N/A,,Overcast,150,2013-03-12 05:53:00
11:53 PM,48.0,45.0,89,30.20,6.0,SE,8.1,-,0.00,Rain,Light Rain,140,2013-03-12 06:53:00